Find Starlink 34266

NORAD ID: 65093 Int'l Des: 2025-167 Owner: SPXS Country: US Constellation: starlink operational
LEOCIRCULAR

現在のビュー

3D地球を読み込み中...

About Starlink 34266

Starlink 34266 (NORAD 65093) is a starlink constellation satellite (v2 mini) launched Aug 4, 2025 by SPXS of US. It operates in LEO, CIRCULAR orbit with a mass of 575.00 kg.

次回通過

Passes for default location (London). Set your location on the main map for personalized predictions.

高度履歴

Loading altitude history...

軌道要素

1 65093U 25167R 26237.22203044 .00021817 00000-0 65473-3 0 9998
2 65093 53.1571 316.6854 0002577 87.2382 272.8915 15.34410467 59385
Epoch: Aug 25, 2026 • Age: 10 hours

現在のステータス

高度 478.7 km
遠地点 / 近地点 N/A
速度 7.63 km/s
衛星直下点 -43.45°S, 30.54°W
打ち上げ日 Aug 4, 2025
運用期間 1 year
タイプ internet

技術仕様

分類 Payload
質量 575.00 kg
乾燥質量 530.00 kg
総質量 575.00 kg
長さ 0.30 m
直径 4.10 m
スパン 29.00 m
形状 Box + pan
製造者 SPXS
バスタイプ Starlink V2MO
フェーズステータス In Orbit
所有者/国 SPXS/US

Most Searched